This is the latest recevied weather packets stored in our database for station/object OE9FWV. If no packets are shown the sender has not sent any weather packets the latest 10 day(s).
| Time | Temp. | Humidity | Pressure | Rain* | Wind** | Luminosity | Snow |
|---|---|---|---|---|---|---|---|
| 1777751943 | 17.78° C | 49% | 1016 hPa | 0 mm | - | - | - |
| 1777751342 | 17.78° C | 51% | 1016.1 hPa | 0 mm | - | - | - |
| 1777750742 | 18.33° C | 51% | 1016.1 hPa | 0 mm | - | - | - |
| 1777750136 | 18.89° C | 50% | 1016 hPa | 0 mm | - | - | - |
| 1777749531 | 19.44° C | 49% | 1016 hPa | 0 mm | - | - | - |
| 1777748926 | 20° C | 46% | 1015.9 hPa | 0 mm | - | - | - |
| 1777748326 | 20° C | 46% | 1015.8 hPa | 0 mm | - | - | - |
| 1777747720 | 20.56° C | 44% | 1015.7 hPa | 0 mm | - | - | - |
| 1777747111 | 21.11° C | 43% | 1015.6 hPa | 0 mm | - | - | - |
| 1777745903 | 22.22° C | 38% | 1015.5 hPa | 0 mm | - | - | - |
| 1777745299 | 22.78° C | 35% | 1015.4 hPa | 0 mm | - | - | - |
| 1777744697 | 22.78° C | 35% | 1015.4 hPa | 0 mm | - | - | - |
| 1777744095 | 23.33° C | 35% | 1015.4 hPa | 0 mm | - | - | - |
| 1777743488 | 23.89° C | 35% | 1015.5 hPa | 0 mm | - | - | - |
| 1777742286 | 24.44° C | 34% | 1015.5 hPa | 0 mm | - | - | - |
| 1777741679 | 24.44° C | 34% | 1015.6 hPa | 0 mm | - | - | - |
| 1777741074 | 24.44° C | 34% | 1015.5 hPa | 0 mm | - | - | - |
| 1777740472 | 24.44° C | 31% | 1015.7 hPa | 0 mm | - | - | - |
| 1777739872 | 24.44° C | 33% | 1015.7 hPa | 0 mm | - | - | - |
| 1777739272 | 24.44° C | 32% | 1015.9 hPa | 0 mm | - | - | - |
| 1777738668 | 25° C | 31% | 1016 hPa | 0 mm | - | - | - |
| 1777736851 | 25° C | 31% | 1016.2 hPa | 0 mm | - | - | - |
| 1777736251 | 24.44° C | 31% | 1016.3 hPa | 0 mm | - | - | - |
| 1777735044 | 25° C | 33% | 1016.6 hPa | 0 mm | - | - | - |
| 1777734436 | 25° C | 34% | 1016.7 hPa | 0 mm | - | - | - |
* Rain latest hour (hover to see other rain measurements)
** Current wind speed in m/s (hover to see current wind gust speed)